Miscellaneous Local Product
Issued by NWS North Platte, NE

Home | Current Version | Previous Version | Graphics & Text | Print | Product List | Glossary On
Versions: 1 2 3 4 5 6 7 8 9 10 11 12 13 14 15 16 17 18 19 20 21 22 23 24 25 26 27 28 29 30 31 32 33 34 35 36 37 38 39 40 41 42 43 44 45 46 47 48 49 50
000
AXUS43 KLBF 170810
MISLBF


WESTERN AND NORTH CENTRAL NEBRASKA HOURLY WEATHER ROUNDUP
NATIONAL WEATHER SERVICE NORTH PLATTE NE
300 AM CDT FRI APR 17 2015

***STATIONS NOT REPORTING VARIABLES SUCH AS SKY/WEATHER OR
PRESSURE ARE PROVIDED BY THE NEBRASKA DEPARTMENT OF
ROADS...RAWS...AND APRS NETWORKS...AND ARE NOT UNDER
NATIONAL WEATHER SERVICE QUALITY CONTROL***

...OBSERVATIONS IN AND NEAR THE EASTERN PANHANDLE OF NEBRASKA...

CITY           SKY/WX    TMP DP  RH WIND       PRES   REMARKS
PINE RIDGE     CLOUDY    44  35  70 E6        30.18F
CHADRON        CLOUDY    45  37  73 E3        30.18F
ALLIANCE       LGT RAIN  46  41  82 NE9       30.16R
SIDNEY         LGT RAIN  45  44  97 NE15      30.10F
WHITECLAY        N/A     41  34  77 N3          N/A
BIG SPRINGS      N/A     52  50  93 E9          N/A
$$

...OBSERVATIONS IN NORTH CENTRAL NEBRASKA...

CITY           SKY/WX    TMP DP  RH WIND       PRES   REMARKS
VALENTINE      CLOUDY    53  36  52 N13       30.15R
THEDFORD       RAIN      54  51  90 CALM      30.13F
AINSWORTH      CLOUDY    51  42  71 NW6       30.14S
O`NEILL        CLOUDY    50  48  95 CALM      30.13S
ORD            CLOUDY    53  49  86 N3        30.09S
BROKEN BOW     CLOUDY    56  50  80 E8        30.09S
BROWNLEE         N/A     56  43  61 N7          N/A
SPRINGVIEW       N/A     52  42  68 CALM        N/A
BREWSTER         N/A     55  52  90 E3          N/A
ROSE             N/A     55  54  95 N3          N/A
NEWPORT          N/A     50  49  95 W3          N/A
SARGENT          N/A     54  50  87 CALM        N/A
COMSTOCK         N/A     57  55  92 CALM        N/A
EWING            N/A     50  47  90 CALM        N/A
$$

...OBSERVATIONS IN SOUTHWEST NEBRASKA AND FAR NORTHEAST COLORADO...

CITY           SKY/WX    TMP DP  RH WIND       PRES   REMARKS
WRAY           DRIZZLE  N/A N/A N/A E10       30.05F
HOLYOKE        LGT RAIN  54  52  94 E17       30.05F
IMPERIAL       LGT RAIN  51  50  96 CALM      30.07F FOG
OGALLALA       CLOUDY    52  50  93 E8        30.10F
NORTH PLATTE   LGT RAIN  52  50  93 CALM      30.11R
MCCOOK         LGT RAIN  53  51  93 NE9       30.07S FOG
LEXINGTON      LGT RAIN  55  53  94 CALM      30.09R
PAXTON           N/A     53  50  90 NE9         N/A
BRADY            N/A     52  49  90 CALM        N/A
GOTHENBURG       N/A     53  49  86 CALM        N/A
CALLAWAY         N/A     54  51  90 E5          N/A
$$

...NORTH PLATTE AREA...

CITY           SKY/WX    TMP DP  RH WIND       PRES   REMARKS
AIRPORT        LGT RAIN  52  50  93 CALM      30.11R
DOWNTOWN         N/A     53  50  89 CALM        N/A
$$

...SOME WEATHER OBSERVATIONS FROM AROUND THE REGION...

CITY           SKY/WX    TMP DP  RH WIND       PRES   REMARKS
DENVER         SNOW      33  33 100 W10       30.08F VSB 1/4 WCI  25
LARAMIE        LGT SNOW  31  30  96 N9        30.12F FOG     WCI  23
CHEYENNE       LGT SNOW  33  31  92 N20G25    30.12S FOG     WCI  21
SCOTTSBLUFF    LGT RAIN  46  40  79 CALM      30.15S
RAPID CITY     PTCLDY    43  30  60 N12       30.20F
PIERRE         CLEAR     46  34  62 N10       30.16S
WINNER         FAIR      48  37  65 NW6       30.16R
SIOUX FALLS    MOCLDY    49  44  83 CALM      30.12R
OMAHA          CLOUDY    55  51  86 N5        30.07S
GRAND ISLAND   CLOUDY    55  52  89 NE5       30.08F
KANSAS CITY    PTCLDY    57  53  86 SE6       30.04F
WICHITA        LGT RAIN  61  55  81 W12       30.03S
HAYS           CLOUDY    57  46  67 SW15      30.05R
LIBERAL        CLOUDY    55  48  76 SE12G17   29.93F
GOODLAND       LGT RAIN  48  47  96 N9        30.06R
$$



USA.gov is the U.S. government's official web portal to all federal, state and local government web resources and services.